#timestamp,LO_Frequency,Hit,StdDev 
1563541215.1,286047005.8,N
1563541216.0,286047005.8,N
1563541235.8,286047006.0,N
1563541255.7,286047005.7,N
1563541275.5,286047003.7,N
1563541295.3,286047001.6,N
1563541315.2,286047002.6,N
1563541335.0,286047002.1,N
1563541335.9,286047002.1,N
1563541355.8,286047002.5,N
1563541375.6,286047000.1,N
1563541395.4,286047002.0,N
1563541415.3,286047002.3,N
1563541435.1,286046999.8,N
1563541455.8,286046998.2,N
1563541475.7,286047001.1,N
1563541495.5,286047000.3,N
1563541515.4,286046999.7,N
1563541535.2,286047002.6,N
1563541555.0,286047002.4,N
1563541555.9,286047002.4,N
1563541575.8,286047004.4,N
1563541595.6,286047004.2,N
1563541615.4,286047003.6,N
1563541635.3,286047003.7,N
1563541655.1,286047004.1,N
1563541675.9,286047003.9,N
1563541695.7,286047001.5,N
1563541715.5,286047004.4,N
1563541735.4,286047006.0,N
1563541755.2,286047005.2,N
1563541775.0,286047005.3,N
1563541775.9,286047005.3,N
1563541795.8,286047004.2,N
1563541815.6,286047003.2,N
1563541835.5,286047004.7,N
1563541855.3,286047005.4,N
1563541875.1,286047007.6,Y
1563541895.9,286047001.7,P
1563541915.7,286047004.1,P
1563541935.6,286047001.8,N
1563541955.4,286047000.3,N
1563541975.2,286046998.7,N
1563541995.1,286047000.0,N
1563541996.0,286047000.0,N
1563542015.8,286046999.8,N
1563542035.6,286047000.2,N
1563542055.5,286047002.5,N
1563542075.3,286047002.1,N
1563542095.2,286046999.9,N
1563542115.9,286047002.5,N
1563542135.7,286047002.1,N
1563542155.6,286047001.5,N
1563542175.4,286047002.1,N
1563542195.2,286047002.2,N
1563542215.1,286047002.4,N
1563542216.0,286047002.4,N
1563542235.8,286047002.4,N
1563542255.7,286047000.1,N
1563542275.5,286047002.8,N
1563542295.3,286046999.7,N
1563542315.2,286046998.2,N
1563542335.0,286046998.6,N
1563542335.9,286046998.6,N
1563542355.7,286047000.6,N
1563542375.6,286047000.6,N
1563542395.4,286046999.8,N
1563542415.3,286046998.6,N
1563542435.1,286046999.4,N
1563542436.0,286046999.4,N
1563542455.8,286046997.0,N
1563542475.7,286046999.5,N
1563542495.5,286046999.0,N
1563542515.3,286047000.7,N
1563542535.2,286047000.9,N
1563542555.0,286047000.3,N
1563542555.9,286047000.3,N
1563542575.8,286046999.8,N
1563542595.6,286047001.0,N
1563542615.4,286047001.0,N
1563542635.3,286046999.3,N
1563542655.1,286046999.7,N
1563542675.9,286047001.0,N
1563542695.7,286047000.1,N
1563542715.5,286047000.2,N
1563542735.4,286047002.7,N
1563542755.2,286047000.1,N
1563542775.0,286046999.8,N
1563542775.9,286046999.8,N
1563542795.8,286047002.3,N
1563542815.6,286047002.3,N
1563542835.5,286047002.8,N
1563542855.3,286046999.9,N
1563542875.1,286047000.3,N
1563542895.9,286047000.4,N
1563542915.7,286047001.0,N
1563542935.5,286047000.6,N
1563542955.4,286047001.0,N
1563542975.2,286046998.6,N
1563542995.1,286046998.8,N
1563542996.0,286046998.8,N
1563543015.8,286047001.1,N
1563543035.6,286046998.2,N
1563543055.5,286047001.0,N
1563543075.3,286047000.1,N
1563543095.1,286047001.0,N
1563543115.9,286047001.2,N
1563543135.7,286047000.6,N
1563543155.6,286047001.1,N
1563543175.4,286047000.5,N
1563543195.2,286046998.4,N
1563543215.1,286046998.7,N
1563543216.0,286046998.7,N
1563543235.8,286046998.1,N
1563543255.6,286047001.1,N
1563543275.5,286046998.8,N
1563543295.3,286047001.2,N
1563543315.2,286047000.5,N
1563543335.9,286047000.2,N
1563543355.7,286047000.9,N
1563543375.6,286047000.3,N
1563543395.4,286046998.9,N
1563543415.2,286046998.9,N
1563543435.1,286046999.3,N
1563543436.0,286046999.3,N
1563543455.8,286046999.2,N
1563543475.7,286046998.8,N
1563543495.5,286046998.5,N
1563543515.3,286047000.8,N
1563543535.2,286047000.8,N
1563543555.0,286047001.0,N
1563543555.9,286047001.0,N
1563543575.8,286046998.1,N
1563543595.6,286046998.1,N
1563543615.4,286047001.0,N
1563543635.3,286046998.7,N
1563543655.1,286046999.4,N
1563543675.8,286047001.1,N
1563543695.7,286046998.6,N
1563543715.5,286046998.2,N
1563543735.4,286046998.4,N
1563543755.2,286046998.7,N
1563543775.0,286046999.2,N
1563543775.9,286046999.2,N
1563543795.8,286046996.6,Y
1563543815.6,286046996.9,P
1563543835.4,286046997.1,N
1563543855.3,286046997.3,N
1563543875.1,286046997.3,N
1563543895.9,286046997.5,N
1563543915.7,286046997.6,N
1563543935.5,286046997.6,N
1563543955.4,286046997.4,Y
1563543975.2,286047000.9,P
1563543995.0,286046998.2,N
1563543996.0,286046998.2,N
1563544015.8,286047001.0,N
1563544035.6,286046999.7,N
1563544055.5,286047000.0,N
1563544075.3,286047000.3,N
1563544095.1,286047000.6,N
1563544115.9,286047000.6,N
1563544135.7,286047000.8,N
1563544155.5,286046998.1,N
1563544175.4,286046999.0,N
1563544195.2,286046998.8,N
1563544215.1,286047000.8,N
1563544216.0,286047000.8,N
1563544235.8,286047001.0,N
1563544255.6,286046999.7,N
1563544275.5,286047000.2,N
1563544295.3,286047002.7,N
1563544315.1,286047001.2,N
1563544335.9,286047001.0,N
1563544355.7,286047000.4,N
1563544375.6,286047001.0,N
1563544395.4,286047000.7,N
1563544415.2,286046998.2,N
1563544435.1,286046998.1,N
1563544436.0,286046998.1,N
1563544455.8,286047000.5,N
1563544475.7,286047000.8,N
1563544495.5,286046998.3,N
1563544515.3,286046998.3,N
1563544535.2,286047000.8,N
1563544555.9,286047000.8,N
1563544575.7,286047001.0,N
1563544595.6,286047001.0,N
1563544615.4,286046998.1,N
1563544635.3,286047001.2,N
1563544655.1,286047011.9,Y
1563544656.0,286047000.7,P
1563544675.8,286047000.7,N
1563544695.7,286047000.3,N
1563544715.5,286046998.1,Y
1563544735.3,286046998.7,P
1563544755.2,286046998.7,N
1563544775.0,286046999.3,N
1563544775.9,286046999.3,N
1563544795.8,286046999.2,N
